Location: Gälforsberget
(66.6500°N, 22.4167°E)
Time: 21:30:41
(UTC+00:00)

Cosmos 2218 Rocket - Pass Details

Date: 11 April 2026
Orbit: 955 x 1005 km, 82.9° (Epoch: 11 May)

Event Time Altitude Azimuth Distance (km) Brightness Sun altitude
Rises 20:08:07 0° 198° (SSW) 3,633 6.6 -10.4°
Reaches altitude 10° 20:10:36 10° 199° (SSW) 2,689 6.0 -10.6°
Maximum altitude 20:16:46 84° 288° (WNW) 972 4.1 -10.9°
Drops below altitude 10° 20:22:59 10° 18° (NNE) 2,709 6.9 -11.3°
Sets 20:25:30 0° 19° (NNE) 3,663 7.6 -11.4°
